Year,Month,Day,Hour,Minute,Value (Times are PST for windgust in km/hr)
2015,07,08,00,06,1.60
2015,07,08,00,07,3.20
2015,07,08,00,08,3.20
2015,07,08,00,09,3.20
2015,07,08,00,10,3.20
2015,07,08,00,11,3.20
2015,07,08,00,12,1.60
2015,07,08,00,13,3.20
2015,07,08,00,14,3.20
2015,07,08,00,15,3.20
2015,07,08,00,16,3.20
2015,07,08,00,17,4.80
2015,07,08,00,18,3.20
2015,07,08,00,19,3.20
2015,07,08,00,20,3.20
2015,07,08,00,21,3.20
2015,07,08,00,22,3.20
2015,07,08,00,23,3.20
2015,07,08,00,24,3.20
2015,07,08,00,25,3.20
2015,07,08,00,26,3.20
2015,07,08,00,27,3.20
2015,07,08,00,28,1.60
2015,07,08,00,29,3.20
2015,07,08,00,30,3.20
2015,07,08,00,31,3.20
2015,07,08,00,32,1.60
2015,07,08,00,33,3.20
2015,07,08,00,34,1.60
2015,07,08,00,35,3.20
2015,07,08,00,36,1.60
2015,07,08,00,37,1.60
2015,07,08,00,39,1.60
2015,07,08,00,40,1.60
2015,07,08,00,41,1.60
2015,07,08,00,42,1.60
2015,07,08,00,43,1.60
2015,07,08,00,44,3.20
2015,07,08,00,45,3.20
2015,07,08,00,46,3.20
2015,07,08,00,47,1.60
2015,07,08,00,48,3.20
2015,07,08,00,49,3.20
2015,07,08,00,50,1.60
2015,07,08,00,51,3.20
2015,07,08,00,52,3.20
2015,07,08,00,53,1.60
2015,07,08,00,54,1.60
2015,07,08,00,55,3.20
2015,07,08,00,56,3.20
2015,07,08,00,57,3.20
2015,07,08,00,58,3.20
2015,07,08,00,59,3.20
2015,07,08,01,00,4.80
2015,07,08,01,01,3.20
2015,07,08,01,02,3.20
2015,07,08,01,03,3.20
2015,07,08,01,04,1.60
2015,07,08,01,05,1.60
2015,07,08,01,06,1.60
2015,07,08,01,07,1.60
2015,07,08,01,08,1.60
2015,07,08,01,09,1.60
2015,07,08,01,10,1.60
2015,07,08,01,11,1.60
2015,07,08,01,12,3.20
2015,07,08,01,13,3.20
2015,07,08,01,14,3.20
2015,07,08,01,15,1.60
2015,07,08,01,16,1.60
2015,07,08,01,17,1.60
2015,07,08,01,51,4.80
2015,07,08,01,52,4.80
2015,07,08,01,53,3.20
2015,07,08,01,54,3.20
2015,07,08,01,55,1.60
2015,07,08,01,57,4.80
2015,07,08,01,58,3.20
2015,07,08,01,59,3.20
2015,07,08,02,00,1.60
2015,07,08,02,01,1.60
2015,07,08,02,02,3.20
2015,07,08,02,03,3.20
2015,07,08,02,04,1.60
2015,07,08,02,05,3.20
2015,07,08,02,06,3.20
2015,07,08,02,07,3.20
2015,07,08,02,08,1.60
2015,07,08,02,42,3.20
2015,07,08,02,43,3.20
2015,07,08,02,44,4.80
2015,07,08,02,45,3.20
2015,07,08,02,46,4.80
2015,07,08,02,47,3.20
2015,07,08,02,48,3.20
2015,07,08,02,49,3.20
2015,07,08,02,50,3.20
2015,07,08,02,51,1.60
2015,07,08,02,52,3.20
2015,07,08,02,53,4.80
2015,07,08,02,54,4.80
2015,07,08,02,55,3.20
2015,07,08,02,56,4.80
2015,07,08,02,57,6.40
2015,07,08,02,58,6.40
2015,07,08,02,59,4.80
2015,07,08,03,00,4.80
2015,07,08,03,01,3.20
2015,07,08,03,02,3.20
2015,07,08,03,03,4.80
2015,07,08,03,04,4.80
2015,07,08,03,05,3.20
2015,07,08,03,06,3.20
2015,07,08,03,07,3.20
2015,07,08,03,08,3.20
2015,07,08,03,09,1.60
2015,07,08,03,10,6.40
2015,07,08,03,11,6.40
2015,07,08,03,12,4.80
2015,07,08,03,13,3.20
2015,07,08,03,14,1.60
2015,07,08,03,15,3.20
2015,07,08,03,16,3.20
2015,07,08,03,17,3.20
2015,07,08,03,18,4.80
2015,07,08,03,19,3.20
2015,07,08,03,20,3.20
2015,07,08,03,21,1.60
2015,07,08,03,22,3.20
2015,07,08,03,23,4.80
2015,07,08,03,24,3.20
2015,07,08,03,25,3.20
2015,07,08,03,26,3.20
2015,07,08,03,27,3.20
2015,07,08,03,28,3.20
2015,07,08,03,29,3.20
2015,07,08,03,30,3.20
2015,07,08,03,31,3.20
2015,07,08,03,32,3.20
2015,07,08,03,33,3.20
2015,07,08,03,34,1.60
2015,07,08,03,36,1.60
2015,07,08,03,37,1.60
2015,07,08,03,38,1.60
2015,07,08,03,39,1.60
2015,07,08,03,40,3.20
2015,07,08,03,41,3.20
2015,07,08,03,42,3.20
2015,07,08,03,43,3.20
2015,07,08,03,44,3.20
2015,07,08,03,45,3.20
2015,07,08,03,46,3.20
2015,07,08,03,47,3.20
2015,07,08,03,48,1.60
2015,07,08,03,49,1.60
2015,07,08,03,51,1.60
2015,07,08,03,52,1.60
2015,07,08,03,57,1.60
2015,07,08,03,59,1.60
2015,07,08,04,00,1.60
2015,07,08,04,03,1.60
2015,07,08,04,05,1.60
2015,07,08,05,21,1.60
2015,07,08,05,22,1.60
2015,07,08,05,23,1.60
2015,07,08,05,25,1.60
2015,07,08,05,33,1.60
2015,07,08,05,34,1.60
2015,07,08,05,35,1.60
2015,07,08,05,41,1.60
2015,07,08,05,43,1.60
2015,07,08,05,44,1.60
2015,07,08,05,45,1.60
2015,07,08,05,46,1.60
2015,07,08,05,47,1.60
2015,07,08,05,48,1.60
2015,07,08,05,49,1.60
2015,07,08,06,36,1.60
2015,07,08,06,37,1.60
2015,07,08,06,38,3.20
2015,07,08,06,39,3.20
2015,07,08,06,40,1.60
2015,07,08,06,41,3.20
2015,07,08,06,42,3.20
2015,07,08,06,43,1.60
2015,07,08,06,44,3.20
2015,07,08,06,45,3.20
2015,07,08,06,46,1.60
2015,07,08,06,47,1.60
2015,07,08,06,49,3.20
2015,07,08,06,50,3.20
2015,07,08,06,51,4.80
2015,07,08,06,52,4.80
2015,07,08,06,53,4.80
2015,07,08,06,54,4.80
2015,07,08,06,55,4.80
2015,07,08,06,56,3.20
2015,07,08,06,57,4.80
2015,07,08,06,58,1.60
2015,07,08,06,59,1.60
2015,07,08,07,00,3.20
2015,07,08,07,01,3.20
2015,07,08,07,02,3.20
2015,07,08,07,03,1.60
2015,07,08,07,10,3.20
2015,07,08,07,11,3.20
2015,07,08,07,12,3.20
2015,07,08,07,13,1.60
2015,07,08,07,14,4.80
2015,07,08,07,15,3.20
2015,07,08,07,16,4.80
2015,07,08,07,17,3.20
2015,07,08,07,18,3.20
2015,07,08,07,19,3.20
2015,07,08,07,20,3.20
2015,07,08,07,21,1.60
2015,07,08,07,22,1.60
2015,07,08,07,23,3.20
2015,07,08,07,24,1.60
2015,07,08,07,25,1.60
2015,07,08,07,26,3.20
2015,07,08,07,27,3.20
2015,07,08,07,28,3.20
2015,07,08,07,29,4.80
2015,07,08,07,30,1.60
2015,07,08,07,31,1.60
2015,07,08,07,32,1.60
2015,07,08,07,33,3.20
2015,07,08,07,34,3.20
2015,07,08,07,35,1.60
2015,07,08,07,36,3.20
2015,07,08,07,37,1.60
2015,07,08,07,40,1.60
2015,07,08,07,41,1.60
2015,07,08,07,42,3.20
2015,07,08,07,43,3.20
2015,07,08,07,44,3.20
2015,07,08,07,45,1.60
2015,07,08,07,46,1.60
2015,07,08,07,47,3.20
2015,07,08,07,48,1.60
2015,07,08,07,49,1.60
2015,07,08,07,50,4.80
2015,07,08,07,51,1.60
2015,07,08,07,52,1.60
2015,07,08,07,53,1.60
2015,07,08,07,54,3.20
2015,07,08,07,55,1.60
2015,07,08,07,56,3.20
2015,07,08,07,57,3.20
2015,07,08,07,58,4.80
2015,07,08,07,59,3.20
2015,07,08,08,00,3.20
2015,07,08,08,01,4.80
2015,07,08,08,02,3.20
2015,07,08,08,03,3.20
2015,07,08,08,04,3.20
2015,07,08,08,05,3.20
2015,07,08,08,06,3.20
2015,07,08,08,07,3.20
2015,07,08,08,08,3.20
2015,07,08,08,09,3.20
2015,07,08,08,10,3.20
2015,07,08,08,11,3.20
2015,07,08,08,12,3.20
2015,07,08,08,13,3.20
2015,07,08,08,14,3.20
2015,07,08,08,15,3.20
2015,07,08,08,16,1.60
2015,07,08,08,17,3.20
2015,07,08,08,18,3.20
2015,07,08,08,19,4.80
2015,07,08,08,20,4.80
2015,07,08,08,21,4.80
2015,07,08,08,22,4.80
2015,07,08,08,23,4.80
2015,07,08,08,24,4.80
2015,07,08,08,25,3.20
2015,07,08,08,26,4.80
2015,07,08,08,27,3.20
2015,07,08,08,28,4.80
2015,07,08,08,29,4.80
2015,07,08,08,30,3.20
2015,07,08,08,31,4.80
2015,07,08,08,32,4.80
2015,07,08,08,33,4.80
2015,07,08,08,34,4.80
2015,07,08,08,35,4.80
2015,07,08,08,36,4.80
2015,07,08,08,37,4.80
2015,07,08,08,38,3.20
2015,07,08,08,39,3.20
2015,07,08,08,40,4.80
2015,07,08,08,41,4.80
2015,07,08,08,42,4.80
2015,07,08,08,43,3.20
2015,07,08,08,44,4.80
2015,07,08,08,45,4.80
2015,07,08,08,46,3.20
2015,07,08,08,47,4.80
2015,07,08,08,48,4.80
2015,07,08,08,49,4.80
2015,07,08,08,50,3.20
2015,07,08,08,51,1.60
2015,07,08,08,52,3.20
2015,07,08,08,53,3.20
2015,07,08,08,54,6.40
2015,07,08,08,55,4.80
2015,07,08,08,56,3.20
2015,07,08,08,57,6.40
2015,07,08,08,58,4.80
2015,07,08,08,59,4.80
2015,07,08,09,00,4.80
2015,07,08,09,01,4.80
2015,07,08,09,02,4.80
2015,07,08,09,03,4.80
2015,07,08,09,04,4.80
2015,07,08,09,05,6.40
2015,07,08,09,06,4.80
2015,07,08,09,07,4.80
2015,07,08,09,08,4.80
2015,07,08,09,09,4.80
2015,07,08,09,10,4.80
2015,07,08,09,11,6.40
2015,07,08,09,12,6.40
2015,07,08,09,13,4.80
2015,07,08,09,14,3.20
2015,07,08,09,15,6.40
2015,07,08,09,16,4.80
2015,07,08,09,17,4.80
2015,07,08,09,18,4.80
2015,07,08,09,19,4.80
2015,07,08,09,20,4.80
2015,07,08,09,21,4.80
2015,07,08,09,22,3.20
2015,07,08,09,23,3.20
2015,07,08,09,24,3.20
2015,07,08,09,25,3.20
2015,07,08,09,26,3.20
2015,07,08,09,27,3.20
2015,07,08,09,28,4.80
2015,07,08,09,29,4.80
2015,07,08,09,30,4.80
2015,07,08,09,31,4.80
2015,07,08,09,32,4.80
2015,07,08,09,33,6.40
2015,07,08,09,34,6.40
2015,07,08,09,35,4.80
2015,07,08,09,36,6.40
2015,07,08,09,37,4.80
2015,07,08,09,38,4.80
2015,07,08,09,39,6.40
2015,07,08,09,40,6.40
2015,07,08,09,41,6.40
2015,07,08,09,42,8.10
2015,07,08,09,43,8.10
2015,07,08,09,44,6.40
2015,07,08,09,45,6.40
2015,07,08,09,46,6.40
2015,07,08,09,47,4.80
2015,07,08,09,48,6.40
2015,07,08,09,49,4.80
2015,07,08,09,50,4.80
2015,07,08,09,51,4.80
2015,07,08,09,52,6.40
2015,07,08,09,53,4.80
2015,07,08,09,54,4.80
2015,07,08,09,55,4.80
2015,07,08,09,56,3.20
2015,07,08,09,57,4.80
2015,07,08,09,58,4.80
2015,07,08,09,59,6.40
2015,07,08,10,00,6.40
2015,07,08,10,01,4.80
2015,07,08,10,02,4.80
2015,07,08,10,03,6.40
2015,07,08,10,04,4.80
2015,07,08,10,05,6.40
2015,07,08,10,06,6.40
2015,07,08,10,07,6.40
2015,07,08,10,08,4.80
2015,07,08,10,09,3.20
2015,07,08,10,10,8.10
2015,07,08,10,11,6.40
2015,07,08,10,12,6.40
2015,07,08,10,13,8.10
2015,07,08,10,14,6.40
2015,07,08,10,15,4.80
2015,07,08,10,16,8.10
2015,07,08,10,17,4.80
2015,07,08,10,18,6.40
2015,07,08,10,19,6.40
2015,07,08,10,20,6.40
2015,07,08,10,21,4.80
2015,07,08,10,22,4.80
2015,07,08,10,23,6.40
2015,07,08,10,24,4.80
2015,07,08,10,25,6.40
2015,07,08,10,26,6.40
2015,07,08,10,27,4.80
2015,07,08,10,28,8.10
2015,07,08,10,29,8.10
2015,07,08,10,30,4.80
2015,07,08,10,31,6.40
2015,07,08,10,32,6.40
2015,07,08,10,33,4.80
2015,07,08,10,34,8.10
2015,07,08,10,35,8.10
2015,07,08,10,36,6.40
2015,07,08,10,37,8.10
2015,07,08,10,38,6.40
2015,07,08,10,39,4.80
2015,07,08,10,40,6.40
2015,07,08,10,41,8.10
2015,07,08,10,42,6.40
2015,07,08,10,43,8.10
2015,07,08,10,44,9.60
2015,07,08,10,45,6.40
2015,07,08,10,46,6.40
2015,07,08,10,47,8.10
2015,07,08,10,48,8.10
2015,07,08,10,49,8.10
2015,07,08,10,50,6.40
2015,07,08,10,51,6.40
2015,07,08,10,52,6.40
2015,07,08,10,53,6.40
2015,07,08,10,54,6.40
2015,07,08,10,55,6.40
2015,07,08,10,56,8.10
2015,07,08,10,57,9.60
2015,07,08,10,58,8.10
2015,07,08,10,59,6.40
2015,07,08,11,00,6.40
2015,07,08,11,01,8.10
2015,07,08,11,02,12.90
2015,07,08,11,03,9.60
2015,07,08,11,04,8.10
2015,07,08,11,05,4.80
2015,07,08,11,06,6.40
2015,07,08,11,07,8.10
2015,07,08,11,08,6.40
2015,07,08,11,09,8.10
2015,07,08,11,10,9.60
2015,07,08,11,11,8.10
2015,07,08,11,12,6.40
2015,07,08,11,13,9.60
2015,07,08,11,14,4.80
2015,07,08,11,15,6.40
2015,07,08,11,16,6.40
2015,07,08,11,17,8.10
2015,07,08,11,18,6.40
2015,07,08,11,19,4.80
2015,07,08,11,20,8.10
2015,07,08,11,21,6.40
2015,07,08,11,22,8.10
2015,07,08,11,23,8.10
2015,07,08,11,24,6.40
2015,07,08,11,25,8.10
2015,07,08,11,26,8.10
2015,07,08,11,27,8.10
2015,07,08,11,28,6.40
2015,07,08,11,29,6.40
2015,07,08,11,30,8.10
2015,07,08,11,31,4.80
2015,07,08,11,32,4.80
2015,07,08,11,33,9.60
2015,07,08,11,34,12.90
2015,07,08,11,35,6.40
2015,07,08,11,36,8.10
2015,07,08,11,37,12.90
2015,07,08,11,38,6.40
2015,07,08,11,39,8.10
2015,07,08,11,40,8.10
2015,07,08,11,41,6.40
2015,07,08,11,42,6.40
2015,07,08,11,43,6.40
2015,07,08,11,44,6.40
2015,07,08,11,45,6.40
2015,07,08,11,46,8.10
2015,07,08,11,47,6.40
2015,07,08,11,48,4.80
2015,07,08,11,49,6.40
2015,07,08,11,50,8.10
2015,07,08,11,51,4.80
2015,07,08,11,52,4.80
2015,07,08,11,53,6.40
2015,07,08,11,54,4.80
2015,07,08,11,55,3.20
2015,07,08,11,56,8.10
2015,07,08,11,57,6.40
2015,07,08,11,58,6.40
2015,07,08,11,59,4.80
2015,07,08,12,00,6.40
2015,07,08,12,01,4.80
2015,07,08,12,02,8.10
2015,07,08,12,03,8.10
2015,07,08,12,04,6.40
2015,07,08,12,05,6.40
2015,07,08,12,06,6.40
2015,07,08,12,07,4.80
2015,07,08,12,08,8.10
2015,07,08,12,09,6.40
2015,07,08,12,10,6.40
2015,07,08,12,11,8.10
2015,07,08,12,12,6.40
2015,07,08,12,13,9.60
2015,07,08,12,14,9.60
2015,07,08,12,15,8.10
2015,07,08,12,16,6.40
2015,07,08,12,17,9.60
2015,07,08,12,18,9.60
2015,07,08,12,19,8.10
2015,07,08,12,20,12.90
2015,07,08,12,21,6.40
2015,07,08,12,22,12.90
2015,07,08,12,23,4.80
2015,07,08,12,24,8.10
2015,07,08,12,25,8.10
2015,07,08,12,26,6.40
2015,07,08,12,27,6.40
2015,07,08,12,28,9.60
2015,07,08,12,29,6.40
2015,07,08,12,30,8.10
2015,07,08,12,31,8.10
2015,07,08,12,32,8.10
2015,07,08,12,33,6.40
2015,07,08,12,34,9.60
2015,07,08,12,35,6.40
2015,07,08,12,36,9.60
2015,07,08,12,37,6.40
2015,07,08,12,38,6.40
2015,07,08,12,39,6.40
2015,07,08,12,40,4.80
2015,07,08,12,41,6.40
2015,07,08,12,42,6.40
2015,07,08,12,43,6.40
2015,07,08,12,44,8.10
2015,07,08,12,45,6.40
2015,07,08,12,46,6.40
2015,07,08,12,47,6.40
2015,07,08,12,48,9.60
2015,07,08,12,49,6.40
2015,07,08,12,50,8.10
2015,07,08,12,51,8.10
2015,07,08,12,52,8.10
2015,07,08,12,53,9.60
2015,07,08,12,54,8.10
2015,07,08,12,55,4.80
2015,07,08,12,56,8.10
2015,07,08,12,57,6.40
2015,07,08,12,58,6.40
2015,07,08,12,59,4.80
2015,07,08,13,00,6.40
2015,07,08,13,01,6.40
2015,07,08,13,02,6.40
2015,07,08,13,03,3.20
2015,07,08,13,04,4.80
2015,07,08,13,05,6.40
2015,07,08,13,06,6.40
2015,07,08,13,07,6.40
2015,07,08,13,08,4.80
2015,07,08,13,09,4.80
2015,07,08,13,10,6.40
2015,07,08,13,11,4.80
2015,07,08,13,12,4.80
2015,07,08,13,13,4.80
2015,07,08,13,14,4.80
2015,07,08,13,15,6.40
2015,07,08,13,16,4.80
2015,07,08,13,17,4.80
2015,07,08,13,18,4.80
2015,07,08,13,19,6.40
2015,07,08,13,20,6.40
2015,07,08,13,21,4.80
2015,07,08,13,22,3.20
2015,07,08,13,23,6.40
2015,07,08,13,24,6.40
2015,07,08,13,25,4.80
2015,07,08,13,26,4.80
2015,07,08,13,27,6.40
2015,07,08,13,28,6.40
2015,07,08,13,29,6.40
2015,07,08,13,30,6.40
2015,07,08,13,31,6.40
2015,07,08,13,32,3.20
2015,07,08,13,33,4.80
2015,07,08,13,34,4.80
2015,07,08,13,35,6.40
2015,07,08,13,36,6.40
2015,07,08,13,37,4.80
2015,07,08,13,38,4.80
2015,07,08,13,39,6.40
2015,07,08,13,40,4.80
2015,07,08,13,41,6.40
2015,07,08,13,42,4.80
2015,07,08,13,43,6.40
2015,07,08,13,44,6.40
2015,07,08,13,45,6.40
2015,07,08,13,46,6.40
2015,07,08,13,47,4.80
2015,07,08,13,48,4.80
2015,07,08,13,49,4.80
2015,07,08,13,50,4.80
2015,07,08,13,51,4.80
2015,07,08,13,52,6.40
2015,07,08,13,53,6.40
2015,07,08,13,54,6.40
2015,07,08,13,55,6.40
2015,07,08,13,56,6.40
2015,07,08,13,57,4.80
2015,07,08,13,58,4.80
2015,07,08,13,59,4.80
2015,07,08,14,00,3.20
2015,07,08,14,01,6.40
2015,07,08,14,02,6.40
2015,07,08,14,03,4.80
2015,07,08,14,04,6.40
2015,07,08,14,05,6.40
2015,07,08,14,06,4.80
2015,07,08,14,07,6.40
2015,07,08,14,08,4.80
2015,07,08,14,09,3.20
2015,07,08,14,10,4.80
2015,07,08,14,11,4.80
2015,07,08,14,12,8.10
2015,07,08,14,13,6.40
2015,07,08,14,14,8.10
2015,07,08,14,15,8.10
2015,07,08,14,16,6.40
2015,07,08,14,17,4.80
2015,07,08,14,18,4.80
2015,07,08,14,19,4.80
2015,07,08,14,20,6.40
2015,07,08,14,21,3.20
2015,07,08,14,22,3.20
2015,07,08,14,23,8.10
2015,07,08,14,24,6.40
2015,07,08,14,25,8.10
2015,07,08,14,26,4.80
2015,07,08,14,27,4.80
2015,07,08,14,28,6.40
2015,07,08,14,29,4.80
2015,07,08,14,30,6.40
2015,07,08,14,31,8.10
2015,07,08,14,32,6.40
2015,07,08,14,33,4.80
2015,07,08,14,34,8.10
2015,07,08,14,35,6.40
2015,07,08,14,36,8.10
2015,07,08,14,37,6.40
2015,07,08,14,38,8.10
2015,07,08,14,39,6.40
2015,07,08,14,40,4.80
2015,07,08,14,41,4.80
2015,07,08,14,42,6.40
2015,07,08,14,43,6.40
2015,07,08,14,44,6.40
2015,07,08,14,45,8.10
2015,07,08,14,46,6.40
2015,07,08,14,47,6.40
2015,07,08,14,48,8.10
2015,07,08,14,49,6.40
2015,07,08,14,50,8.10
2015,07,08,14,51,9.60
2015,07,08,14,52,6.40
2015,07,08,14,53,6.40
2015,07,08,14,54,6.40
2015,07,08,14,55,4.80
2015,07,08,14,56,6.40
2015,07,08,14,57,8.10
2015,07,08,14,58,11.30
2015,07,08,14,59,8.10
2015,07,08,15,00,6.40
2015,07,08,15,01,9.60
2015,07,08,15,02,9.60
2015,07,08,15,03,8.10
2015,07,08,15,04,9.60
2015,07,08,15,05,8.10
2015,07,08,15,06,8.10
2015,07,08,15,07,8.10
2015,07,08,15,08,8.10
2015,07,08,15,09,6.40
2015,07,08,15,10,9.60
2015,07,08,15,11,8.10
2015,07,08,15,12,8.10
2015,07,08,15,13,8.10
2015,07,08,15,14,11.30
2015,07,08,15,15,9.60
2015,07,08,15,16,8.10
2015,07,08,15,17,4.80
2015,07,08,15,18,8.10
2015,07,08,15,19,8.10
2015,07,08,15,20,6.40
2015,07,08,15,21,6.40
2015,07,08,15,22,8.10
2015,07,08,15,23,8.10
2015,07,08,15,24,9.60
2015,07,08,15,25,9.60
2015,07,08,15,26,6.40
2015,07,08,15,27,4.80
2015,07,08,15,28,6.40
2015,07,08,15,29,6.40
2015,07,08,15,30,6.40
2015,07,08,15,31,8.10
2015,07,08,15,32,8.10
2015,07,08,15,33,3.20
2015,07,08,15,34,4.80
2015,07,08,15,35,6.40
2015,07,08,15,36,9.60
2015,07,08,15,37,6.40
2015,07,08,15,38,8.10
2015,07,08,15,39,6.40
2015,07,08,15,40,8.10
2015,07,08,15,41,8.10
2015,07,08,15,42,8.10
2015,07,08,15,43,9.60
2015,07,08,15,44,12.90
2015,07,08,15,45,6.40
2015,07,08,15,46,9.60
2015,07,08,15,47,9.60
2015,07,08,15,48,6.40
2015,07,08,15,49,6.40
2015,07,08,15,50,3.20
2015,07,08,15,51,6.40
2015,07,08,15,52,6.40
2015,07,08,15,53,4.80
2015,07,08,15,54,4.80
2015,07,08,15,55,6.40
2015,07,08,15,56,8.10
2015,07,08,15,57,6.40
2015,07,08,15,58,6.40
2015,07,08,15,59,4.80
2015,07,08,16,00,6.40
2015,07,08,16,01,4.80
2015,07,08,16,02,6.40
2015,07,08,16,03,4.80
2015,07,08,16,04,4.80
2015,07,08,16,05,4.80
2015,07,08,16,06,4.80
2015,07,08,16,07,4.80
2015,07,08,16,08,4.80
2015,07,08,16,09,3.20
2015,07,08,16,10,4.80
2015,07,08,16,11,6.40
2015,07,08,16,12,4.80
2015,07,08,16,13,6.40
2015,07,08,16,14,6.40
2015,07,08,16,15,9.60
2015,07,08,16,16,8.10
2015,07,08,16,17,6.40
2015,07,08,16,18,6.40
2015,07,08,16,19,6.40
2015,07,08,16,20,4.80
2015,07,08,16,21,4.80
2015,07,08,16,22,4.80
2015,07,08,16,23,11.30
2015,07,08,16,24,6.40
2015,07,08,16,25,6.40
2015,07,08,16,26,6.40
2015,07,08,16,27,6.40
2015,07,08,16,28,4.80
2015,07,08,16,29,6.40
2015,07,08,16,30,4.80
2015,07,08,16,31,6.40
2015,07,08,16,32,3.20
2015,07,08,16,33,9.60
2015,07,08,16,34,8.10
2015,07,08,16,35,6.40
2015,07,08,16,36,9.60
2015,07,08,16,37,9.60
2015,07,08,16,38,9.60
2015,07,08,16,39,6.40
2015,07,08,16,40,4.80
2015,07,08,16,41,1.60
2015,07,08,16,42,4.80
2015,07,08,16,43,4.80
2015,07,08,16,44,3.20
2015,07,08,16,45,4.80
2015,07,08,16,46,8.10
2015,07,08,16,47,4.80
2015,07,08,16,48,3.20
2015,07,08,16,49,1.60
2015,07,08,16,50,6.40
2015,07,08,16,51,6.40
2015,07,08,16,52,4.80
2015,07,08,16,53,6.40
2015,07,08,16,54,6.40
2015,07,08,16,55,4.80
2015,07,08,16,56,4.80
2015,07,08,16,57,4.80
2015,07,08,16,58,4.80
2015,07,08,16,59,4.80
2015,07,08,17,00,4.80
2015,07,08,17,01,3.20
2015,07,08,17,02,3.20
2015,07,08,17,03,3.20
2015,07,08,17,04,4.80
2015,07,08,17,05,4.80
2015,07,08,17,06,1.60
2015,07,08,17,07,3.20
2015,07,08,17,08,4.80
2015,07,08,17,09,4.80
2015,07,08,17,10,3.20
2015,07,08,17,11,3.20
2015,07,08,17,12,4.80
2015,07,08,17,13,4.80
2015,07,08,17,14,6.40
2015,07,08,17,15,6.40
2015,07,08,17,16,4.80
2015,07,08,17,17,3.20
2015,07,08,17,18,3.20
2015,07,08,17,19,3.20
2015,07,08,17,20,3.20
2015,07,08,17,21,4.80
2015,07,08,17,22,6.40
2015,07,08,17,23,6.40
2015,07,08,17,24,6.40
2015,07,08,17,25,9.60
2015,07,08,17,26,11.30
2015,07,08,17,27,9.60
2015,07,08,17,28,11.30
2015,07,08,17,29,9.60
2015,07,08,17,30,6.40
2015,07,08,17,31,9.60
2015,07,08,17,32,11.30
2015,07,08,17,33,9.60
2015,07,08,17,34,6.40
2015,07,08,17,35,8.10
2015,07,08,17,36,8.10
2015,07,08,17,37,9.60
2015,07,08,17,38,11.30
2015,07,08,17,39,6.40
2015,07,08,17,40,9.60
2015,07,08,17,41,9.60
2015,07,08,17,42,9.60
2015,07,08,17,43,9.60
2015,07,08,17,44,6.40
2015,07,08,17,45,8.10
2015,07,08,17,46,6.40
2015,07,08,17,47,4.80
2015,07,08,17,48,4.80
2015,07,08,17,49,9.60
2015,07,08,17,50,6.40
2015,07,08,17,51,6.40
2015,07,08,17,52,6.40
2015,07,08,17,53,4.80
2015,07,08,17,54,6.40
2015,07,08,17,55,4.80
2015,07,08,17,56,6.40
2015,07,08,17,57,4.80
2015,07,08,17,58,4.80
2015,07,08,17,59,8.10
2015,07,08,18,00,8.10
2015,07,08,18,01,8.10
2015,07,08,18,02,9.60
2015,07,08,18,03,4.80
2015,07,08,18,04,4.80
2015,07,08,18,05,11.30
2015,07,08,18,06,9.60
2015,07,08,18,07,6.40
2015,07,08,18,08,6.40
2015,07,08,18,09,8.10
2015,07,08,18,10,9.60
2015,07,08,18,11,6.40
2015,07,08,18,12,9.60
2015,07,08,18,13,11.30
2015,07,08,18,14,11.30
2015,07,08,18,15,4.80
2015,07,08,18,16,8.10
2015,07,08,18,17,6.40
2015,07,08,18,18,4.80
2015,07,08,18,19,9.60
2015,07,08,18,20,6.40
2015,07,08,18,21,6.40
2015,07,08,18,22,6.40
2015,07,08,18,23,6.40
2015,07,08,18,24,6.40
2015,07,08,18,25,4.80
2015,07,08,18,26,4.80
2015,07,08,18,27,3.20
2015,07,08,18,28,3.20
2015,07,08,18,29,3.20
2015,07,08,18,30,4.80
2015,07,08,18,31,4.80
2015,07,08,18,32,4.80
2015,07,08,18,33,1.60
2015,07,08,18,34,3.20
2015,07,08,18,35,3.20
2015,07,08,18,36,3.20
2015,07,08,18,37,3.20
2015,07,08,18,38,3.20
2015,07,08,18,39,3.20
2015,07,08,18,40,3.20
2015,07,08,18,41,1.60
2015,07,08,18,42,3.20
2015,07,08,18,43,4.80
2015,07,08,18,44,3.20
2015,07,08,18,45,3.20
2015,07,08,18,46,1.60
2015,07,08,18,51,4.80
2015,07,08,18,52,4.80
2015,07,08,18,53,1.60
2015,07,08,18,54,3.20
2015,07,08,18,55,3.20
2015,07,08,18,56,4.80
2015,07,08,18,57,4.80
2015,07,08,18,58,4.80
2015,07,08,18,59,6.40
2015,07,08,19,00,8.10
2015,07,08,19,01,8.10
2015,07,08,19,02,6.40
2015,07,08,19,03,4.80
2015,07,08,19,04,6.40
2015,07,08,19,05,6.40
2015,07,08,19,06,4.80
2015,07,08,19,07,6.40
2015,07,08,19,08,4.80
2015,07,08,19,09,6.40
2015,07,08,19,10,6.40
2015,07,08,19,11,3.20
2015,07,08,19,12,4.80
2015,07,08,19,13,6.40
2015,07,08,19,14,8.10
2015,07,08,19,15,4.80
2015,07,08,19,16,3.20
2015,07,08,19,17,4.80
2015,07,08,19,18,4.80
2015,07,08,19,19,6.40
2015,07,08,19,20,6.40
2015,07,08,19,21,4.80
2015,07,08,19,22,4.80
2015,07,08,19,23,4.80
2015,07,08,19,24,6.40
2015,07,08,19,25,4.80
2015,07,08,19,26,4.80
2015,07,08,19,27,4.80
2015,07,08,19,28,3.20
2015,07,08,19,29,3.20
2015,07,08,19,30,4.80
2015,07,08,19,31,6.40
2015,07,08,19,32,4.80
2015,07,08,19,33,6.40
2015,07,08,19,34,3.20
2015,07,08,19,35,6.40
2015,07,08,19,36,3.20
2015,07,08,19,37,6.40
2015,07,08,19,38,3.20
2015,07,08,19,39,6.40
2015,07,08,19,40,6.40
2015,07,08,19,41,6.40
2015,07,08,19,42,6.40
2015,07,08,19,43,6.40
2015,07,08,19,44,6.40
2015,07,08,19,45,6.40
2015,07,08,19,46,3.20
2015,07,08,19,47,3.20
2015,07,08,19,48,6.40
2015,07,08,19,49,3.20
2015,07,08,19,50,3.20
2015,07,08,19,51,3.20
2015,07,08,19,52,6.40
2015,07,08,19,53,6.40
2015,07,08,19,54,3.20
2015,07,08,19,55,3.20
2015,07,08,19,56,3.20
2015,07,08,19,57,1.60
2015,07,08,19,58,3.20
2015,07,08,19,59,3.20
2015,07,08,20,00,3.20
2015,07,08,20,01,4.80
2015,07,08,20,02,4.80
2015,07,08,20,03,4.80
2015,07,08,20,04,4.80
2015,07,08,20,05,4.80
2015,07,08,20,06,4.80
2015,07,08,20,07,4.80
2015,07,08,20,08,3.20
2015,07,08,20,09,1.60
2015,07,08,20,10,1.60
2015,07,08,20,11,1.60
2015,07,08,20,12,3.20
2015,07,08,20,13,4.80
2015,07,08,20,14,4.80
2015,07,08,20,15,3.20
2015,07,08,20,16,6.40
2015,07,08,20,17,3.20
2015,07,08,20,18,3.20
2015,07,08,20,19,3.20
2015,07,08,20,20,3.20
2015,07,08,20,21,6.40
2015,07,08,20,22,6.40
2015,07,08,20,23,6.40
2015,07,08,20,24,6.40
2015,07,08,20,25,6.40
2015,07,08,20,26,4.80
2015,07,08,20,27,4.80
2015,07,08,20,28,3.20
2015,07,08,20,29,3.20
2015,07,08,20,30,1.60
2015,07,08,20,31,1.60
2015,07,08,20,32,1.60
2015,07,08,20,33,3.20
2015,07,08,20,34,3.20
2015,07,08,20,35,4.80
2015,07,08,20,36,6.40
2015,07,08,20,37,4.80
2015,07,08,20,38,6.40
2015,07,08,20,39,6.40
2015,07,08,20,40,6.40
2015,07,08,20,41,4.80
2015,07,08,20,42,3.20
2015,07,08,20,43,4.80
2015,07,08,20,44,4.80
2015,07,08,20,45,6.40
2015,07,08,20,46,8.10
2015,07,08,20,47,1.60
2015,07,08,20,48,1.60
2015,07,08,20,49,1.60
2015,07,08,20,51,1.60
2015,07,08,20,52,1.60
2015,07,08,20,53,3.20
2015,07,08,20,54,3.20
2015,07,08,20,55,1.60
2015,07,08,20,56,1.60
2015,07,08,21,04,3.20
2015,07,08,21,05,3.20
2015,07,08,21,06,3.20
2015,07,08,21,07,3.20
2015,07,08,21,08,3.20
2015,07,08,21,09,1.60
2015,07,08,21,10,1.60
2015,07,08,21,11,1.60
2015,07,08,21,14,3.20
2015,07,08,21,15,3.20
2015,07,08,21,16,3.20
2015,07,08,21,17,3.20
2015,07,08,21,18,3.20
2015,07,08,21,19,1.60
2015,07,08,21,20,3.20
2015,07,08,21,21,3.20
2015,07,08,21,22,3.20
2015,07,08,21,23,1.60
2015,07,08,21,24,3.20
2015,07,08,21,25,3.20
2015,07,08,21,26,3.20
2015,07,08,21,27,1.60
2015,07,08,21,28,1.60
2015,07,08,21,29,3.20
2015,07,08,21,30,6.40
2015,07,08,21,31,4.80
2015,07,08,21,32,4.80
2015,07,08,21,33,3.20
2015,07,08,21,34,3.20
2015,07,08,21,35,3.20
2015,07,08,21,36,1.60
2015,07,08,21,37,1.60
2015,07,08,21,38,3.20
2015,07,08,21,39,1.60
2015,07,08,21,40,3.20
2015,07,08,21,41,1.60
2015,07,08,21,42,3.20
2015,07,08,21,43,3.20
2015,07,08,21,44,1.60
2015,07,08,21,45,1.60
2015,07,08,21,46,3.20
2015,07,08,21,47,3.20
2015,07,08,21,48,4.80
2015,07,08,21,49,3.20
2015,07,08,21,50,3.20
2015,07,08,21,51,3.20
2015,07,08,21,52,1.60
2015,07,08,21,53,3.20
2015,07,08,21,54,3.20
2015,07,08,21,55,3.20
2015,07,08,21,56,3.20
2015,07,08,21,57,4.80
2015,07,08,21,58,3.20
2015,07,08,21,59,3.20
2015,07,08,22,03,1.60
2015,07,08,22,04,1.60
2015,07,08,22,05,3.20
2015,07,08,22,06,4.80
2015,07,08,22,07,4.80
2015,07,08,22,08,4.80
2015,07,08,22,09,1.60
2015,07,08,22,10,3.20